Location: Voyageurs National Park
(48.5020°N, 92.9292°W)
Time: 08:32:34
(UTC-05:00)

Daily predictions for brighter satellites

Satellite Brightness Start Highest point End
(mag) Time Altitude Azimuth Time Altitude Azimuth Time Altitude Azimuth
SL-27 R/B 3.9 21:26:27 10° NW 21:29:53 38° WSW 21:33:15 10° S
Okean 2 Rocket 4.1 21:27:14 10° SE 21:30:57 27° E 21:34:39 10° NNE
Cosmos 1606 2.7 21:28:09 10° N 21:32:07 78° E 21:36:02 10° SSE
Gbstr 26 Del rocket 3.9 21:28:14 10° WNW 21:33:56 61° N 21:38:30 10° E
Nadezhda 3 Rocket 4.1 21:28:08 10° N 21:34:31 74° E 21:40:53 10° SSE
Meteor 1-27 Rocket 3.7 21:30:17 10° N 21:35:55 86° E 21:41:26 10° SSE
OPS 6432 4.4 21:34:51 10° SW 21:38:07 80° NW 21:41:16 10° NE
NOSS 2-2 (C) 3.9 21:35:24 10° SW 21:39:38 78° NW 21:44:48 10° NE
Sich 1 Rocket 3.7 21:36:20 10° S 21:40:55 82° E 21:45:31 10° N
Cosmos 1892 4.2 21:38:21 10° SSW 21:42:00 40° WNW 21:45:42 10° N
Cosmos 1782 3.8 21:39:35 10° NNW 21:43:29 47° W 21:47:22 10° SSW
BREEZE-M DEB (TANK) 4.2 21:26:14 10° WNW 21:43:59 69° SSW 21:48:20 10° SE
Cosmos 1782 Rocket 4.0 21:40:12 10° SSE 21:44:26 43° E 21:48:41 10° NNE
COSMOS 2487 2.5 21:44:41 10° NNW 21:48:20 87° WSW 21:51:57 10° SSE
BREEZE-M DEB (TANK) 0.9 21:46:24 10° WSW 21:48:27 73° SSE 21:51:02 10° ENE
MetOp-B 4.2 21:47:13 10° SSE 21:52:33 76° ENE 21:57:55 10° NNW
Envisat 3.4 21:48:15 10° S 21:53:18 67° WSW 21:58:24 10° NNW
Coronas F rocket 4.4 21:51:35 10° WSW 21:53:32 18° WNW 21:55:30 10° NNW
DNEPR-1 R/B 4.0 21:48:22 10° NW 21:54:07 89° NE 21:58:32 12° SE
Cosmos 1975 Rocket 3.0 21:51:24 10° N 21:55:44 73° E 22:00:03 10° SSE
Cosmos 1939 Rocket 3.9 21:55:55 10° S 21:59:37 42° W 22:03:24 10° NNW
Cosmos 2341 Rocket 4.0 21:57:13 10° S 22:03:30 77° E 22:09:46 10° NNE
Cosmos 614 Rocket 4.0 21:59:04 10° NNW 22:04:10 67° ENE 22:08:37 13° SSE
Cosmos 1420 Rocket 4.3 21:59:30 10° S 22:04:31 48° ESE 22:09:32 10° NNE
Cosmos 1378 Rocket 4.1 22:03:25 10° NNW 22:07:39 56° W 22:11:53 10° S
Cosmos 1536 Rocket 4.5 22:04:20 10° N 22:08:28 35° ENE 22:11:41 15° SE
Cosmos 2084 3.1 22:04:43 10° SSW 22:08:31 63° SE 22:12:20 10° NE
Cosmos 1908 Rocket 4.0 22:04:51 10° SSW 22:09:14 66° W 22:13:41 10° N
ARGOS 3.2 22:05:13 11° SSE 22:10:17 68° ENE 22:15:37 10° N
CZ-4 R/B 4.5 22:06:52 10° NNE 22:11:09 34° E 22:14:47 13° SSE
deb Chang Zheng 4 4.1 22:07:44 10° N 22:12:07 65° WNW 22:16:31 10° SSW
Timation 2 Rocket 4.0 22:07:57 10° NNW 22:14:00 79° WSW 22:19:21 13° SSE
Cosmos 1140 Rocket 3.7 22:09:07 10° NNW 22:14:15 71° WSW 22:19:08 11° SSE
SL-8 Rocket 4.1 22:11:14 10° S 22:17:22 60° E 22:23:30 10° NNE
H-2A R/B 2.7 22:13:15 15° SE 22:17:27 44° ENE 22:22:27 10° N
NOSS 5 (C) 4.2 22:18:12 10° SW 22:21:26 83° NW 22:24:35 10° NE
Cosmos 1242 Rocket 2.8 22:17:49 10° NNW 22:21:28 69° W 22:24:43 13° S
YAOGAN 6 3.0 22:18:38 11° S 22:21:59 59° W 22:25:29 10° NNW
Cosmos 1452 Rocket 3.9 22:17:39 10° SSW 22:22:54 70° WNW 22:28:13 10° NNE
Cosmos 1408 3.3 22:20:44 10° SSW 22:24:19 54° WNW 22:27:55 10° N
USA 245 3.3 22:21:41 15° S 22:24:29 76° WSW 22:28:48 10° NNW
USA 234 4.2 22:19:31 10° ENE 22:24:31 23° SE 22:29:28 10° S
CZ-4B R/B 3.4 22:21:08 10° NNE 22:26:05 62° ESE 22:30:53 10° S
CZ-4 SHROUD 4.3 22:23:22 10° S 22:26:18 40° W 22:29:15 10° NNW
Cosmos 1825 3.2 22:25:26 10° SSW 22:29:08 48° WNW 22:32:52 10° N
Cosmos 1833 Rocket 2.8 22:23:57 10° NNW 22:29:35 72° ENE 22:33:42 19° SE
BREEZE-M DEB 4.2 22:26:38 10° WSW 22:30:29 55° SSE 22:32:42 14° E
SPOT 1/Viking Rocket 3.8 22:28:02 12° S 22:32:51 72° WSW 22:38:06 10° NNW
Cosmos 2278 Rocket 2.3 22:29:09 10° SSW 22:34:49 80° WNW 22:40:34 10° NNE
Cosmos 2151 Rocket 3.8 22:33:24 16° S 22:36:49 57° E 22:41:17 10° NNE
Cosmos 1184 Rocket 4.0 22:34:28 10° SSW 22:37:39 42° WNW 22:40:53 10° N
Cosmos 1844 Rocket 4.0 22:32:37 10° SW 22:37:59 43° NW 22:43:21 10° NNE
H-2A R/B 4.1 22:34:54 10° SSW 22:38:18 23° W 22:41:40 10° NW
Meteor 1-18 Rocket 4.4 22:33:27 10° N 22:39:22 73° ENE 22:43:43 19° SSE
Landsat 7 3.8 22:36:06 19° SSE 22:39:27 74° ENE 22:44:14 10° N
SL-8 R/B 3.7 22:39:35 10° W 22:44:26 89° S 22:49:16 10° E
Meteor 1-14 Rocket 4.2 22:41:40 10° S 22:47:21 86° E 22:52:57 10° NNE
Cosmos 864 Rocket 4.5 22:42:35 14° S 22:47:56 70° E 22:54:05 10° NNE
IGS 5A 3.7 22:47:10 25° SE 22:49:22 57° ENE 22:53:28 10° N
Cosmos 1812 2.9 22:45:53 10° N 22:49:43 57° ENE 22:51:28 29° SE
Cosmos 2082 Rocket 2.4 22:45:19 10° NNW 22:51:00 68° WSW 22:54:52 21° SSE
ISS -3.5 22:48:05 10° WSW 22:51:19 68° SSE 22:54:34 10° ENE
Terra 1.8 22:52:21 24° SSE 22:55:11 75° ENE 22:59:57 10° N
SAR-Lupe-2 4.1 22:54:24 30° ESE 22:55:44 44° ENE 22:59:09 10° N
Intercosmos 25 4.0 22:52:54 10° SSW 22:56:12 43° WNW 22:59:16 10° N
Cosmos 1300 Rocket 4.2 22:55:02 27° SE 22:56:47 39° E 23:00:57 10° NNE
Cosmos 2366 rocket 4.0 22:51:58 12° S 22:57:49 86° E 23:04:13 10° N
SL-08 RB Rocket 4.3 22:55:26 17° S 22:58:50 53° W 23:03:25 10° NNW
Okean 1 Rocket 3.8 22:58:10 27° SE 22:59:47 37° E 23:03:54 10° NNE
Okean 1-7 Rocket 3.9 23:00:48 10° N 23:05:15 53° ENE 23:07:08 31° SE
Spot 4 3.9 23:03:33 28° SSE 23:06:09 73° ENE 23:11:00 10° N
Cosmos 2297 3.8 23:04:17 10° SSW 23:10:00 81° WNW 23:15:47 10° NNE
DMSP B5D2-2 4.0 23:07:06 10° NNE 23:12:19 67° ESE 23:15:24 25° S
USA 229 DEB 4.1 23:05:34 10° NW 23:12:30 58° WSW 23:16:52 24° SSE
USA 229 4.1 23:05:40 10° NW 23:12:37 58° WSW 23:16:58 24° SSE
Meteor 1-11 Rocket 4.4 23:12:12 27° SE 23:14:38 39° E 23:19:57 10° NNE
Iridium 4 Rocket 4.5 23:09:42 10° N 23:15:15 42° E 23:17:58 27° SE
Lacrosse 5 3.2 23:17:36 21° ESE 23:17:36 21° ESE 23:20:27 10° ENE
Gbstr 26 Del rocket 3.0 23:16:02 10° WNW 23:21:06 73° SSW 23:22:46 37° SE
CZ-4C R/B 4.3 23:19:47 23° SSW 23:21:48 42° W 23:25:46 10° NNW
Spot 2 4.2 23:18:10 10° NNE 23:22:29 53° E 23:23:41 39° SSE
ASTEX 1 3.4 23:17:39 10° N 23:22:37 69° E 23:24:51 32° S
AVUM R/B 4.3 23:21:26 10° NW 23:24:44 38° WSW 23:25:32 33° SW
Cosmos 1331 Rocket 3.9 23:22:09 27° S 23:24:54 66° ESE 23:30:01 10° NNE
NOSS 8 (E) 4.4 23:25:56 35° SSW 23:27:16 74° SE 23:31:10 10° NE
BREEZE-M DEB (TANK) 4.1 23:23:39 10° W 23:27:27 81° N 23:40:54 10° E
Cosmos 1000 Rocket 4.5 23:23:38 10° N 23:29:54 77° E 23:33:09 31° SSE
NOSS 3-1 (A) 4.1 23:23:32 10° NW 23:30:55 75° NE 23:36:14 24° SE
CZ-4B R/B 3.8 23:31:00 11° ENE 23:31:29 11° ENE 23:32:34 10° NE
Cosmos 1110 Rocket 3.9 23:28:13 23° SSW 23:31:35 83° ESE 23:36:50 10° NNE
Timation 1 Rocket 4.3 23:27:35 16° SSW 23:32:27 78° ESE 23:38:28 10° NNE
Cosmos 1400 Rocket 3.4 23:35:35 39° ESE 23:36:05 41° E 23:39:59 10° NNE
Cosmos 1536 3.5 23:36:20 35° ESE 23:36:40 35° E 23:40:20 10° NNE
Cosmos 2369 Rocket 3.0 23:42:12 29° ESE 23:43:03 31° ESE 23:47:55 10° NE
Meteor 1-19 Rocket 4.3 23:37:21 10° N 23:43:15 80° ENE 23:45:47 36° SSE
H-2A R/B 4.3 23:44:39 10° NE 23:47:56 19° E 23:48:06 19° E
ATLAS 2AS CENTAUR R/B 3.7 23:44:02 10° NW 23:52:01 52° NE 23:58:44 14° ESE
Cosmos 1354 Rocket 4.0 23:47:05 10° NNW 23:52:23 80° ENE 23:54:16 41° SSE
Cosmos 1486 Rocket 4.3 23:48:12 10° NNW 23:53:27 58° WSW 23:55:27 36° SSW
Cosmos 1356 3.3 23:54:13 73° ESE 23:54:19 74° E 23:57:52 10° NNE
